Location: *
(37.4917°N, 71.5558°E)
Time: 08:30:53
(UTC+00:00)

ATLAS 2AS CENTAUR R/B - Pass Details

Date: 09 April 2020
Orbit: 931 x 1280 km, 63.7° (Epoch: 31 May)

Event Time Altitude Azimuth Distance (km) Brightness Sun altitude
Rises 16:26:15 0° 316° (NW) 4,087 6.9 -29.9°
Reaches altitude 10° 16:29:33 10° 305° (NW) 3,064 6.0 -30.4°
Maximum altitude 16:35:16 26° 253° (WSW) 2,022 4.4 -31.2°
Enters shadow 16:37:59 20° 220° (SW) 2,241 4.3 -31.6°
